Location: Byhalia Creek
(34.8270°N, 89.8040°W)
Time: 09:01:26
(UTC+00:00)

SPOT 3 Rocket - Pass Details

Date: 22 April 2026
Orbit: 774 x 791 km, 98.5° (Epoch: 15 May)

Event Time Altitude Azimuth Distance (km) Brightness Sun altitude
Exits shadow 03:22:49 45° 12° (NNE) 1,071 4.3 -30.3°
Drops below altitude 10° 03:26:27 10° 354° (N) 2,346 6.6 -30.9°
Sets 03:28:47 0° 351° (N) 3,276 7.5 -31.2°
